Location: Newark
(44.2003°N, 3.2583°E)
Time: 19:30:17
(UTC+00:00)

Explorer 7 - Pass Details

Date: 17 October 2019
Orbit: 485 x 680 km, 50.3° (Epoch: 13 November)

Event Time Altitude Azimuth Distance (km) Brightness Sun altitude
Rises 18:06:05 0° 296° (WNW) 2,643 11.5 -12.5°
Reaches altitude 10° 18:08:17 10° 290° (WNW) 1,779 10.6 -12.9°
Maximum altitude 18:12:12 50° 215° (SW) 711 7.6 -13.6°
Enters shadow 18:16:10 11° 141° (SE) 1,813 9.1 -14.3°
